Garden City, KS

11:22 AM CDT on March 25, 2017 (GMT -0500)
Garden City Regional

Weather History for KGCK - December, 2012

Change the Weather History Date:

Sunday, December 23, 2012

  Actual Average Record
Temperature  
Mean Temperature 26 °F 31 °F  
Max Temperature 36 °F 43 °F 75 °F (1955)
Min Temperature 16 °F 18 °F -12 °F (1989)
Degree Days  
Heating Degree Days 39 34  
Month to date heating degree days 627 756  
Since 1 July heating degree days 1607 1845  
Cooling Degree Days 0 0  
Month to date cooling degree days 0 0  
Year to date cooling degree days 1643 1298  
Moisture  
Dew Point 21 °F    
Average Humidity 76    
Maximum Humidity 92    
Minimum Humidity 59    
Precipitation  
Precipitation 0.00 in 0.01 in 0.24 in (1965)
Month to date precipitation 0.62 0.39  
Year to date precipitation 13.29 19.34  
Sea Level Pressure  
Sea Level Pressure 30.00 in    
Wind  
Wind Speed 7 mph (NNW)    
Max Wind Speed 13 mph    
Max Gust Speed 17 mph    
Visibility 10 miles    
Events      
T = Trace of Precipitation, MM = Missing Value Source: NWS Daily Summary

Daily Weather History Graph

Daily Weather History Graph

Search for Another Location

Airport or City:

Trip Planner

Search our weather history database for the weather conditions in past years. The results will help you decide how hot, cold, wet, or windy it might be!

Date:

Astronomy

Dec. 23, 2012 Rise Set
Actual Time 7:56 AM CST 5:28 PM CST
Civil Twilight 7:26 AM CST 5:57 PM CST
Nautical Twilight 6:53 AM CST 6:30 PM CST
Astronomical Twilight 6:21 AM CST 7:02 PM CST
Moon 2:18 PM CST (12/23) 3:42 AM CST (12/23)
Length of Visible Light 10h 31m
Length of Day
9h 32m
Waxing Gibbous, 82% of the Moon is Illuminated
Dec 23
Waxing Gibbous
Dec 28
Full
Jan 4
Last Quarter
Jan 11
New
Jan 18
First Quarter

Hourly Weather History & Observations

Time (CST) Temp. Windchill Dew Point Humidity Pressure Visibility Wind Dir Wind Speed Gust Speed Precip Events Conditions
12:54 AM 27.0 °F 16.7 °F 21.9 °F 81% 30.01 in 10.0 mi North 11.5 mph - N/A   Clear
1:54 AM 25.0 °F 17.1 °F 19.9 °F 81% 29.98 in 10.0 mi NNW 6.9 mph - N/A   Clear
2:54 AM 21.9 °F 13.4 °F 18.0 °F 85% 29.96 in 10.0 mi North 6.9 mph - N/A   Clear
3:54 AM 21.9 °F 11.7 °F 18.0 °F 85% 29.95 in 10.0 mi North 9.2 mph - N/A   Clear
4:54 AM 19.9 °F 9.3 °F 17.1 °F 89% 29.98 in 10.0 mi North 9.2 mph - N/A   Clear
5:54 AM 19.0 °F 9.0 °F 16.0 °F 88% 29.99 in 10.0 mi NNE 8.1 mph - N/A   Clear
6:54 AM 18.0 °F 11.1 °F 15.1 °F 88% 30.01 in 10.0 mi North 4.6 mph - N/A   Clear
7:54 AM 17.1 °F - 14.0 °F 88% 30.01 in 10.0 mi Calm Calm - N/A   Clear
8:54 AM 21.0 °F - 17.1 °F 85% 30.00 in 10.0 mi Calm Calm - N/A   Clear
9:54 AM 24.1 °F - 21.0 °F 88% 30.02 in 10.0 mi Calm Calm - N/A   Clear
10:54 AM 28.0 °F - 21.9 °F 78% 30.01 in 10.0 mi Calm Calm - N/A   Clear
11:54 AM 30.0 °F 26.5 °F 23.0 °F 75% 29.99 in 10.0 mi NE 3.5 mph - N/A   Clear
12:54 PM 30.9 °F 24.3 °F 24.1 °F 76% 29.97 in 10.0 mi NNE 6.9 mph - N/A   Clear
1:54 PM 33.1 °F 30.0 °F 24.1 °F 70% 29.96 in 10.0 mi West 3.5 mph - N/A   Clear
2:54 PM 36.0 °F 31.1 °F 23.0 °F 59% 29.96 in 10.0 mi WNW 5.8 mph - N/A   Clear
3:54 PM 34.0 °F 25.5 °F 24.1 °F 67% 29.98 in 10.0 mi NNW 11.5 mph - N/A   Clear
4:54 PM 33.1 °F 25.5 °F 25.0 °F 72% 30.00 in 10.0 mi NW 9.2 mph - N/A   Clear
5:54 PM 30.0 °F 22.4 °F 24.1 °F 79% 30.01 in 10.0 mi NW 8.1 mph - N/A   Clear
6:54 PM 28.9 °F 21.9 °F 24.1 °F 82% 30.03 in 10.0 mi WNW 6.9 mph - N/A   Clear
7:54 PM 28.0 °F 19.3 °F 24.1 °F 85% 30.03 in 10.0 mi NW 9.2 mph - N/A   Clear
8:54 PM 27.0 °F 18.0 °F 23.0 °F 85% 30.05 in 10.0 mi WNW 9.2 mph - N/A   Clear
9:54 PM 27.0 °F 17.3 °F 21.0 °F 78% 30.04 in 10.0 mi NW 10.4 mph - N/A   Clear
10:54 PM 26.1 °F 17.6 °F 19.9 °F 78% 30.04 in 10.0 mi NNW 8.1 mph - N/A   Clear
11:54 PM 24.1 °F 15.2 °F 19.0 °F 81% 30.05 in 10.0 mi NW 8.1 mph - N/A   Clear